COSMOS 2251 DEB, 33823

Orbit data source: Space-Track

COSMOS 2251 DEB, 33823 is space debris in LEO originally from a launch on Wed, 16 Jun 1993 UTC launched from the Plesetsk Missile And Space Complex (PKMTR). The debris from Iridium 33, an American commercial communications satellite, has been tracked extensively since its accidental collision with the defunct Russian satellite Cosmos 2251 in 2009. This event, occurring at high speed in low Earth orbit (LEO), generated thousands of pieces of space debris, significantly increasing the risk of further collisions. The Iridium 33 debris cloud has impacted space traffic management and orbital debris mitigation strategies, making it a subject of ongoing study in space situational awareness.

Loading next visibility...
Identifier
33823, 1993-036BQ
Orbit
LEO
Country
Flag of CISCIS
Related business
Manufacturer
Unknown
Mission
Spacecraft
Bus & Motor
Unknown
Mass
Unknown
Launch date (UTC)
1993-06-16 (33 years ago)
Launch vehicle
Unknown
Launch site
Plesetsk Missile And Space Complex (PKMTR)
Object type
Payload
Rocket body
Debris
Shape & HBR
Unknown shape, 0.1 m
Radar Cross Section
Small (<0.1 m²)

Expand to show TLE details & history
Last TLE update: 6 hours ago

TLE from 6 hours ago
0 COSMOS 2251 DEB
1 33823U 93036BQ  26121.48292477  .00000547  00000-0  32679-3 0  9991
2 33823  73.8088 264.3409 0208193   5.3700  55.5046 13.99318129875642
Epoch: 2026-05-01T11:35Z
TLE epoch observation values (Epoch: 2026-05-01T11:35:24.700Z)
Latitude
58.8304°
Longitude
-100.40643°
Altitude
822.136 km
Speed
7.491 km/s
True Right ascension
19h 31m 26s
True Declination
58° 40' 45"
Sunlit
Object was in daylight at epoch
Visualization orbit readout
Latitude
Unknown
Longitude
Unknown
Altitude
Unknown
Speed
Unknown
Apparent Right ascension
Unknown
Apparent Declination
Unknown
Sunlit
N/A
Visualization observer readout
Local Sidereal Time
01:15:37
Azimuth
Unknown
Elevation
Unknown
Doppler factor
Unknown
Orbital elements
Apogee altitude
1,045.237 km
Perigee altitude
742.442 km
Semi-major axis
7,271.977 km
Eccentricity
0.02082
Inclination
73.8088°
RAAN
264.3409°
Arg. of periapsis
5.37°
True anomaly
57.49983°
Mean anomaly
55.5046°
Eccentric anomaly
56.4993°
Mean motion
3.49997 °/min
Orbital period
102.86 mins
BSTAR
0.00032679
Loading maneuver chart data...
Computing Atmospheric mass density...

Documentation

Showing up to 5 results
|